Location: City of Moscow
(46.7306°N, 116.9989°W)
Time: 04:57:43
(UTC+00:00)

IRS-1D - Pass Details

Date: 11 December 2025
Orbit: 737 x 811 km, 98.8° (Epoch: 13 January)

Event Time Altitude Azimuth Distance (km) Brightness Sun altitude
Rises 13:54:01 0° 6° (N) 3,204 6.6 -14.5°
Reaches altitude 10° 13:56:30 10° 356° (N) 2,284 5.7 -14.1°
Maximum altitude 14:00:53 31° 296° (WNW) 1,313 4.2 -13.4°
Drops below altitude 10° 14:05:18 10° 235° (SW) 2,309 5.7 -12.7°
Sets 14:07:50 0° 225° (SW) 3,245 6.5 -12.3°
